Regional Weather Roundup
Issued by NWS

Home | Current Version | Previous Version | Graphics & Text | Print | Product List | Glossary On
Versions: 1 2 3 4 5 6 7 8 9 10 11 12 13 14 15 16 17 18 19 20 21 22 23 24 25 26 27 28 29 30 31 32 33 34 35 36 37 38 39 40 41 42 43 44 45 46 47 48 49 50
000
ASUS43 KFSD 222010
RWRSD

WEATHER ROUNDUP FOR SOUTH DAKOTA
NATIONAL WEATHER SERVICE SIOUX FALLS SD
200 PM CST MON DEC 22 2014

NOTE: "FAIR" INDICATES FEW OR NO CLOUDS BELOW 12,000 FEET WITH NO
SIGNIFICANT WEATHER AND/OR OBSTRUCTIONS TO VISIBILITY.


SDZ001>005-009-010-012>017-222100-
NORTHWEST AND NORTH CENTRAL SOUTH DAKOTA

CITY           SKY/WX    TMP DP  RH WIND       PRES   REMARKS
BUFFALO          N/A     31  26  82 NW30G41   29.48R WCI  16
FAITH            N/A     31  23  72 NW32G41   29.49S WCI  16
MOBRIDGE       LGT SNOW  31  29  92 N16       29.43R FOG     WCI  20
$$

SDZ012>016-024>037-041>051-057-063-072>074-222100-
SOUTHWEST AND SOUTH CENTRAL SOUTH DAKOTA

CITY           SKY/WX    TMP DP  RH WIND       PRES   REMARKS
RAPID CTY ARPT PTSUNNY   42  23  46 NW31G41   29.50S
PIERRE         CLOUDY    35  30  82 NW21G31   29.44R WCI  24
CUSTER         CLOUDY    31  16  54 NW20G39   29.50F WCI  19
ELLSWORTH AFB  PTSUNNY   40  24  53 N31G40    29.49R
PHILIP         LGT SNOW  34  32  92 NW21G29   29.50S FOG     WCI  22
PINE RIDGE     CLOUDY    43  21  41 NW25G38   29.52F
SPEARFISH      MIX PCPN  37  21  52 NW33G44   29.57S
WINNER         LGT RAIN  37  33  85 NW18      29.45F
$$

SDZ004>011-016>023-039-040-222100-
NORTHEAST SOUTH DAKOTA

CITY           SKY/WX    TMP DP  RH WIND       PRES   REMARKS
ABERDEEN       LGT RAIN  37  34  89 N6        29.40F FOG
WATERTOWN      CLOUDY    37  35  92 S10       29.38S
SISSETON         N/A     38  38 100 SE13      29.42S
$$

SDZ017-020-022-023-036>040-048>070-222100-
SOUTHEAST SOUTH DAKOTA

CITY           SKY/WX    TMP DP  RH WIND       PRES   REMARKS
SIOUX FALLS    DRZL/FOG  39  37  92 E3        29.39F VSB 3/4
HURON          CLOUDY    34  31  88 NW9       29.40F WCI  27
CHAMBERLAIN    CLOUDY    35  32  90 NW15G23   29.43S WCI  25
MITCHELL       CLOUDY    37  35  92 NW9       29.42S
YANKTON        CLOUDY    39  36  87 NW9       29.43R
$$

ABBREVIATIONS USED IN REMARKS
   TC - TEMPERATURE IN CELSIUS
  WCI - WIND CHILL INDEX
   HX - HEAT INDEX
  VSB - VISIBILITY




USA.gov is the U.S. government's official web portal to all federal, state and local government web resources and services.